Showing default

EUTE 113 WEST A(SATMEX 6, 29162

Orbit data source: Space-Track

EUTE 113 WEST A(SATMEX 6, 29162 is a payload satellite owned by Satmex (FR) in GEO that was launched on Sat, 27 May 2006 UTC via an ARIANE 5ECA launch vehicle from the French Guiana (FRGUI). Payload-class satellites include a variety of spacecraft equipped with specific instruments for various scientific and technological missions. These include communications satellites like Starlink; space stations such as the ISS; scientific satellites like the Hubble; Earth observation satellites from companies like Planet Labs, Umbra, and HawkEye 360; GPS; miniature CubeSats for education and research; and military/defense satellites.

Loading next visibility...
Identifier
29162, 2006-020A
Orbit
GEO
Country
Flag of FRFR / EUTE
Related business
Manufacturer
SS/Loral
Mission
Non-operational Commercial Communications
Bus & Motor
SSL-1300X, R-4D-15-300
Mass
5,456 kg wet, 2,310 kg dry
Launch date (UTC)
2006-05-27 (20 years ago)
Launch vehicle
ARIANE 5ECA
Launch site
French Guiana (FRGUI)
Object type
Payload
Rocket body
Debris
Shape & HBR
Box + 2 Pan, 15.7 m
Radar Cross Section
46.105 m², Large (>1 m²)

Expand to show TLE details & history
Last TLE update: 14 hours ago

TLE from 14 hours ago
0 EUTE 113 WEST A(SATMEX 6
1 29162U 06020A   26264.74227596 -.00000056  00000-0  00000-0 0  9992
2 29162   2.6326  80.6415 0000427 130.9822 255.2321  0.98937156 74327
Epoch: 2026-09-21T17:48Z
TLE epoch observation values (Epoch: 2026-09-21T17:48:52.642Z)
Latitude
1.1428°
Longitude
-161.02742°
Altitude
36,164.753 km
Speed
3.061 km/s
True Right ascension
07h 07m 14s
True Declination
1° 08' 30"
Sunlit
Object was in daylight at epoch
Visualization orbit readout
Latitude
Unknown
Longitude
Unknown
Altitude
Unknown
Speed
Unknown
Apparent Right ascension
Unknown
Apparent Declination
Unknown
Sunlit
N/A
Visualization observer readout
Local Sidereal Time
01:12:29
Azimuth
Unknown
Elevation
Unknown
Doppler factor
Unknown
Orbital elements
Apogee altitude
36,167.814 km
Perigee altitude
36,164.181 km
Semi-major axis
42,544.135 km
Eccentricity
0.00004
Inclination
2.6326°
RAAN
80.6415°
Arg. of periapsis
130.9822°
True anomaly
255.22737°
Mean anomaly
255.2321°
Eccentric anomaly
255.22973°
Mean motion
0.24733 °/min
Orbital period
1,455.52 mins
BSTAR
0
Loading maneuver chart data...
Computing Atmospheric mass density...
Loading historical data...
Loading historical data...
Loading historical data...
Loading historical data...
Loading historical data...
Loading historical data...
Loading historical data...
Other satellites on launch #20 in the year 2006 (2006-05-27 UTC)

Documentation

Showing up to 5 results
|